GEFSNGP_con_probscp_150.txt.gz
Probability
0 0 0 0 0 0 0 0 0 1 5 9 11 11 10 9 10 16 22 29 36 42 45 46 45 42 37 33 31 30 27 22 20 20 21 21 19 20 20 15 9 8 9 10
0 0 0 0 0 0 0 0 1 3 7 9 10 11 11 11 15 19 25 31 36 41 45 47 48 45 39 35 35 34 30 26 24 23 22 22 20 21 22 19 15 14 14 13
0 0 0 0 1 1 2 2 3 7 12 14 13 13 14 17 21 24 27 32 38 44 48 50 51 47 40 36 38 39 35 31 31 30 27 25 24 25 26 26 26 25 22 19
1 0 0 1 3 3 4 6 6 10 17 19 18 16 18 23 27 26 26 29 37 45 51 53 52 46 39 37 39 40 38 36 37 36 34 31 31 31 33 33 33 33 30 27
2 1 0 2 4 4 5 9 11 13 17 17 17 17 20 26 28 26 23 25 32 39 47 54 56 50 42 39 40 40 39 39 41 40 37 35 35 37 38 38 37 36 34 33
2 1 0 3 6 5 6 10 15 18 17 15 16 19 22 25 26 25 22 22 26 31 40 51 60 60 51 45 44 45 45 45 47 45 40 38 40 41 41 40 38 35 34 34
1 0 1 5 7 7 10 15 18 18 17 17 18 21 23 22 21 22 22 20 22 28 35 45 56 62 59 53 52 54 55 54 53 49 44 43 45 45 43 39 37 36 35 34
3 3 6 11 12 12 17 20 15 12 12 13 16 18 18 18 17 18 18 18 22 28 35 41 47 55 59 58 59 62 64 63 61 56 48 45 49 49 43 37 35 35 35 34
9 9 11 15 16 16 17 16 11 7 7 8 9 11 12 13 15 15 15 16 21 26 32 38 43 48 53 57 60 63 64 65 66 62 53 49 51 47 39 33 29 29 30 29
9 9 10 11 11 11 11 11 9 7 7 7 7 7 9 11 13 14 15 16 19 22 26 33 38 41 45 51 55 57 59 60 62 59 54 50 47 38 29 24 21 21 22 21
4 4 5 5 5 5 6 7 7 6 6 7 6 6 7 9 10 13 15 16 17 19 23 26 30 34 38 44 49 53 55 54 52 50 45 40 34 24 16 12 11 13 14 13
2 1 2 3 4 3 3 3 5 4 4 3 3 3 4 6 7 9 11 13 15 17 19 21 23 26 32 37 43 48 50 46 43 42 37 29 22 14 7 4 3 4 5 5
2 1 1 1 2 2 2 2 3 3 3 2 2 1 2 4 5 4 4 6 9 11 12 13 15 18 23 28 34 39 40 38 36 36 33 27 20 14 8 3 1 0 0 1
1 0 1 1 1 2 1 1 2 2 3 3 3 2 3 4 3 1 1 2 3 4 3 4 7 10 13 17 22 26 28 29 30 30 30 27 22 17 12 9 4 1 0 0
0 0 1 2 3 2 1 0 1 1 1 2 3 3 3 3 2 1 0 1 1 0 0 0 2 4 5 7 10 14 17 18 21 24 25 24 21 16 14 12 8 4 1 0
0 1 2 3 3 2 1 1 1 0 1 2 2 2 2 2 1 0 0 0 0 0 0 0 0 0 1 1 3 6 7 8 12 16 17 17 16 13 12 11 9 6 2 1
1 1 2 3 2 2 2 2 2 1 1 2 1 1 1 1 0 0 0 0 0 0 0 0 0 0 0 0 0 1 2 2 5 8 10 10 10 9 8 8 7 5 2 1
1 1 2 2 3 3 3 2 2 2 2 2 2 1 1 0 0 0 0 0 0 0 0 0 0 0 0 0 0 0 0 1 2 4 5 6 6 6 6 6 6 5 3 1
2 1 1 2 2 2 2 2 2 2 2 2 2 1 1 0 0 0 0 0 0 0 0 0 0 0 0 0 0 0 0 1 1 2 3 4 4 5 6 6 5 4 2 1
3 2 1 1 1 1 0 1 1 2 1 1 1 0 0 0 0 0 0 0 0 0 0 0 0 0 0 0 0 0 0 0 0 1 1 2 3 3 3 3 3 2 1 1
2 2 1 0 0 0 0 0 1 1 1 0 0 0 0 0 0 0 0 0 0 0 0 0 0 0 0 0 0 0 0 0 0 0 0 1 1 1 1 1 1 0 0 1
1 1 1 0 0 0 0 0 0 0 0 0 0 0 0 0 0 0 0 0 0 0 0 0 0 0 0 0 0 0 0 0 0 0 0 0 0 0 0 0 0 0 0 1
1 1 1 0 0 0 0 0 0 0 0 0 0 0 0 0 0 0 0 0 0 0 0 0 0 0 0 0 0 0 0 0 0 0 0 0 0 0 0 0 0 0 0 0
0 1 1 0 0 0 0 0 0 0 0 0 0 0 0 0 0 0 0 0 0 0 0 0 0 0 0 0 0 0 0 0 0 0 0 0 0 0 0 0 0 0 0 0
0 0 0 0 0 0 0 0 0 0 0 0 0 0 0 0 0 0 0 0 0 0 0 0 0 0 0 0 0 0 0 0 0 0 0 0 0 0 0 0 0 0 0 0
0 0 0 0 0 0 0 0 0 0 0 0 0 0 0 0 0 0 0 0 0 0 0 0 0 0 0 0 0 0 0 0 0 0 0 0 0 0 0 0 0 0 0 0
0 0 0 0 0 0 0 0 0 0 0 0 0 0 0 0 0 0 0 0 0 0 0 0 0 0 0 0 0 0 1 1 1 0 0 0 0 0 0 0 0 0 0 0

GEFSNGP_con_probscp_156.txt.gz
Probability
0 0 0 1 1 1 1 0 0 1 2 4 5 6 6 8 13 16 16 13 11 12 13 12 13 16 16 13 10 8 7 5 4 3 2 1 0 0 0 0 0 0 0 0
0 0 0 0 1 2 2 1 1 2 3 5 6 7 8 10 12 16 16 14 13 13 11 9 11 13 13 12 11 11 10 8 5 3 3 2 1 1 0 0 0 0 0 0
0 0 0 1 2 3 3 2 3 4 5 6 7 8 8 9 11 14 16 16 15 13 10 8 7 8 8 10 13 15 14 12 9 6 4 4 3 2 1 1 1 1 1 1
0 0 1 2 3 3 4 4 5 5 5 5 7 8 9 9 10 11 14 15 14 12 10 9 7 5 5 8 12 16 17 16 13 10 7 6 5 4 4 4 4 3 3 3
0 0 2 4 5 4 4 5 5 4 4 6 8 11 11 11 10 10 10 11 12 11 9 10 9 7 6 7 9 12 15 15 14 12 10 9 9 7 6 6 6 6 6 7
0 0 1 4 5 3 3 3 4 4 4 7 9 10 11 11 10 10 8 8 9 10 10 10 10 8 7 6 7 8 10 12 13 13 13 13 12 11 8 7 6 7 8 9
0 0 0 3 4 2 1 2 3 3 4 6 7 8 9 8 7 7 7 8 9 10 11 11 11 9 6 5 5 6 8 10 11 12 12 13 12 11 11 10 9 8 8 8
1 1 1 2 2 1 1 2 3 2 3 4 5 5 5 4 2 4 6 9 10 11 11 11 11 8 5 4 4 6 8 10 9 9 10 11 11 11 13 13 11 9 7 7
2 1 1 1 1 1 1 2 2 1 1 2 2 2 1 1 1 3 5 8 10 11 11 11 10 7 5 4 4 5 7 9 9 8 10 11 10 10 11 12 11 10 8 7
2 1 1 1 1 1 1 1 1 1 0 1 1 0 1 1 2 2 3 5 8 10 10 9 8 7 5 4 5 4 5 8 8 9 10 10 9 9 8 8 8 9 8 7
2 1 1 1 1 0 1 1 2 1 0 0 0 1 2 2 1 1 1 3 5 7 7 7 6 6 5 5 5 5 5 7 9 9 9 8 7 5 4 4 5 6 6 6
1 0 1 1 0 0 0 1 1 1 0 0 0 2 3 2 1 0 0 1 3 4 4 4 5 6 5 5 4 5 6 7 9 9 7 6 4 3 2 2 1 2 2 3
0 0 0 0 0 0 0 0 0 0 0 0 0 1 2 1 0 0 0 0 1 1 1 2 4 4 4 4 4 4 5 7 7 6 4 3 3 4 3 2 0 0 0 1
0 0 0 0 0 0 0 0 0 0 0 0 0 1 1 0 0 0 0 0 0 0 0 1 2 2 2 2 3 4 5 6 5 3 1 1 2 4 5 3 1 0 0 0
0 0 0 0 0 0 0 0 0 0 0 0 1 1 1 0 0 0 0 0 0 0 0 1 1 1 0 1 1 3 4 3 2 1 0 0 1 3 3 2 1 1 0 0
0 0 0 0 0 0 0 0 0 0 0 1 2 2 1 0 0 0 0 0 0 0 0 0 0 0 0 0 0 1 2 1 0 0 0 0 0 1 1 1 2 1 1 0
0 0 0 0 0 0 0 0 0 0 0 1 2 1 0 0 0 0 0 0 0 0 0 0 0 0 0 0 0 0 0 0 0 0 0 0 0 0 0 1 1 1 1 1
0 0 0 0 0 0 0 0 0 0 0 1 1 0 0 0 0 0 0 0 0 0 0 0 0 0 0 0 0 0 0 0 0 0 0 0 0 0 0 0 0 0 1 1
0 0 0 0 0 0 0 0 0 0 0 0 0 0 0 0 0 0 0 0 0 0 0 0 0 0 0 0 0 0 0 0 0 0 0 0 0 0 0 0 0 0 1 2
0 0 0 0 0 0 0 0 0 0 0 0 0 0 0 0 0 0 0 0 0 0 0 0 0 0 0 0 0 0 0 0 0 0 0 0 0 0 0 0 0 0 1 2
0 0 0 0 0 0 0 0 0 0 0 0 0 0 0 0 0 0 0 0 0 0 0 0 0 0 0 0 0 0 0 0 0 0 0 0 0 0 0 0 0 0 0 1
0 0 0 0 0 0 0 0 0 0 0 0 0 0 0 0 0 0 0 0 0 0 0 0 0 0 0 0 0 0 0 0 0 0 0 0 0 0 0 0 0 0 0 0
0 0 0 0 0 0 0 0 0 0 0 0 0 0 0 0 0 0 0 0 0 0 0 0 0 0 0 0 0 0 0 0 0 0 0 0 0 0 0 0 0 0 0 0
0 0 0 0 0 0 0 0 0 0 0 0 0 0 0 0 0 0 0 0 0 0 0 0 0 0 0 0 0 0 0 0 0 0 0 0 0 0 0 0 0 0 0 0
0 0 0 0 0 0 0 0 0 0 0 0 0 0 0 0 0 0 0 0 0 0 0 0 0 0 0 0 0 0 0 0 0 0 0 0 0 0 0 0 0 0 0 0
0 0 0 0 0 0 0 0 0 0 0 0 0 0 0 0 0 0 0 0 0 0 0 0 0 0 0 0 0 0 0 0 0 0 0 0 0 0 0 0 0 0 0 0
0 0 0 0 0 0 0 0 0 0 0 0 0 0 0 0 0 0 0 0 0 0 0 0 0 0 0 0 0 0 0 0 0 0 0 0 0 0 0 0 0 0 0 0

GEFSNGP_con_probscp_162.txt.gz
Probability
1 0 0 0 0 0 0 0 0 0 0 0 0 1 3 5 6 7 7 6 5 4 3 1 1 3 4 3 2 1 1 1 0 0 0 0 1 1 1 0 0 0 0 0
1 0 0 0 0 0 0 0 0 0 0 0 0 1 4 5 5 6 6 4 3 3 2 2 2 4 5 3 1 0 0 0 0 0 0 0 0 0 0 0 0 0 0 0
1 0 0 0 0 0 0 0 0 0 1 1 0 1 3 4 3 4 3 2 1 1 1 1 3 5 4 3 1 0 0 0 0 0 0 0 0 0 0 0 0 0 0 0
0 0 0 0 0 0 0 0 0 1 2 3 1 1 2 3 2 1 1 0 0 0 0 1 3 4 3 2 1 0 0 0 0 0 0 0 0 0 0 0 0 0 1 1
0 0 0 0 0 0 0 0 0 1 2 3 2 1 2 2 2 1 0 0 0 0 0 1 2 3 2 1 1 0 0 0 0 0 1 1 0 0 0 0 0 1 2 2
0 0 0 0 0 0 0 0 0 1 1 2 1 1 1 2 3 2 1 0 0 0 0 0 1 1 1 0 0 0 0 1 1 1 2 2 1 1 1 2 1 1 3 3
0 0 0 1 1 1 0 0 0 0 1 2 2 2 1 2 2 2 1 1 0 0 0 0 0 0 0 0 0 0 1 2 2 3 3 3 3 2 3 3 2 2 3 3
0 0 0 1 1 1 0 0 0 0 1 2 3 3 2 1 1 1 1 0 0 0 0 0 0 0 0 0 0 1 2 3 3 3 3 3 3 3 3 3 3 2 2 3
1 1 1 0 0 0 0 0 0 0 0 0 1 2 2 1 0 0 0 0 0 0 0 0 0 0 0 1 1 1 2 2 2 3 3 3 3 3 3 3 3 2 2 2
2 2 1 0 0 0 1 1 0 0 0 0 0 0 0 0 0 0 0 0 1 1 2 1 1 1 1 2 2 3 2 1 1 2 3 3 3 3 3 3 3 3 2 2
1 1 1 0 0 0 1 1 0 0 0 0 0 0 0 0 0 0 0 0 1 2 2 2 2 1 2 3 3 3 2 1 0 1 1 2 3 3 3 2 2 2 2 2
0 0 0 0 0 0 1 1 0 0 0 0 0 0 0 0 0 0 0 0 1 1 1 1 1 1 2 2 3 2 1 0 0 0 0 1 2 2 1 1 1 1 1 2
0 0 0 0 0 0 0 0 0 0 0 0 0 0 0 0 0 0 0 0 0 0 0 0 0 0 1 1 2 1 0 0 0 0 0 0 1 1 1 0 0 0 0 1
0 0 0 0 0 0 0 0 0 0 0 0 0 0 0 0 0 0 0 0 0 0 0 0 0 0 0 0 0 0 0 0 0 0 0 0 0 0 0 0 0 0 0 0
0 0 0 0 0 0 0 0 0 0 0 0 0 0 0 0 0 0 0 0 0 0 0 0 0 0 0 0 0 0 0 0 0 0 0 0 0 0 0 0 0 0 0 0
0 0 0 0 0 0 0 0 0 0 0 0 0 0 0 0 0 0 0 0 0 0 0 0 0 0 0 0 0 0 0 0 0 0 0 0 0 0 0 0 0 0 0 0
0 0 0 0 0 0 0 0 0 0 0 0 0 0 0 0 0 0 0 0 0 0 0 0 0 0 0 0 0 0 0 0 0 0 0 0 0 0 0 0 0 0 0 0
0 0 0 0 0 0 0 0 0 0 0 0 0 0 0 0 0 0 0 0 0 0 0 0 0 0 0 0 0 0 0 0 0 0 0 0 0 0 0 0 0 0 0 0
0 0 0 0 0 0 0 0 0 0 0 0 0 0 0 0 0 0 0 0 0 0 0 0 0 0 0 0 0 0 0 0 0 0 0 0 0 0 0 0 0 0 0 0
0 0 0 0 0 0 0 0 0 0 0 0 0 0 0 0 0 0 0 0 0 0 0 0 0 0 0 0 0 0 0 0 0 0 0 0 0 0 0 0 0 0 0 0
0 0 0 0 0 0 0 0 0 0 0 0 0 0 0 0 0 0 0 0 0 0 0 0 0 0 0 0 0 0 0 0 0 0 0 0 0 0 0 0 0 0 0 0
0 0 0 0 0 0 0 0 0 0 0 0 0 0 0 0 0 0 0 0 0 0 0 0 0 0 0 0 0 0 0 0 0 0 0 0 0 0 0 0 0 0 0 0
0 0 0 0 0 0 0 0 0 0 0 0 0 0 0 0 0 0 0 0 0 0 0 0 0 0 0 0 0 0 0 0 0 0 0 0 0 0 0 0 0 0 0 0
0 0 0 0 0 0 0 0 0 0 0 0 0 0 0 0 0 0 0 0 0 0 0 0 0 0 0 0 0 0 0 0 0 0 0 0 0 0 0 0 0 0 0 0
0 0 0 0 0 0 0 0 0 0 0 0 0 0 0 0 0 0 0 0 0 0 0 0 0 0 0 0 0 0 0 0 0 0 0 0 0 0 0 0 0 0 0 0
0 0 0 0 0 0 0 0 0 0 0 0 0 0 0 0 0 0 0 0 0 0 0 0 0 0 0 0 0 0 0 0 0 0 0 0 0 0 0 0 0 0 0 0
0 0 0 0 0 0 0 0 0 0 0 0 0 0 0 0 0 0 0 0 0 0 0 0 0 0 0 0 0 0 0 0 0 0 0 0 0 0 0 0 0 0 0 0

GEFSNGP_con_probscp_168.txt.gz
Probability
0 0 0 0 0 0 0 0 0 1 2 5 8 11 15 16 13 12 13 15 17 18 17 16 13 8 4 2 3 5 8 8 8 8 9 11 10 10 10 11 11 11 9 8
0 0 0 1 0 0 0 0 0 1 3 8 12 15 17 16 14 15 15 15 15 15 16 15 11 7 5 4 4 7 9 9 8 9 10 11 10 8 8 9 11 11 9 7
0 0 1 2 1 0 1 1 1 2 5 10 15 18 17 16 17 19 17 16 14 13 14 13 8 6 5 4 5 7 8 8 8 9 10 10 8 7 7 7 9 10 9 7
0 0 1 2 1 1 3 4 6 6 8 13 18 19 19 19 22 23 20 18 16 14 13 10 7 6 6 5 5 5 6 7 9 9 9 9 7 6 6 5 7 9 9 8
0 0 0 1 2 3 5 8 9 11 14 18 20 20 21 22 23 22 19 17 15 13 10 9 9 9 9 8 7 6 8 10 10 10 10 8 7 5 5 5 7 9 10 10
0 0 1 2 3 4 6 8 9 14 18 19 19 21 22 20 18 16 14 11 9 8 7 8 11 13 13 12 11 10 11 11 12 12 11 9 7 6 6 7 8 10 10 11
1 1 2 3 4 8 11 13 13 16 19 19 21 24 22 18 14 12 10 7 5 5 5 6 10 13 13 13 12 12 11 10 11 11 11 10 10 10 9 9 9 10 12 12
3 3 2 5 10 16 19 19 19 19 19 21 24 23 19 16 14 12 10 7 4 4 5 7 9 10 11 11 11 11 9 9 9 10 10 10 12 12 11 10 9 10 11 12
6 4 2 6 14 19 20 21 22 22 21 21 19 14 11 11 10 10 9 7 5 5 6 8 9 10 10 10 10 9 9 9 9 9 9 10 12 13 11 9 8 8 10 12
5 3 2 5 10 14 17 19 22 22 19 15 11 6 4 4 4 6 7 7 7 7 7 7 9 9 10 10 10 10 10 10 9 8 8 9 10 10 9 8 7 8 11 13
5 3 3 4 7 11 16 20 21 18 12 8 5 2 1 1 1 2 5 7 8 8 7 7 7 8 9 9 9 10 12 12 10 8 8 9 9 8 6 6 6 7 9 11
6 5 4 6 9 13 16 17 15 11 6 3 1 0 0 0 0 1 3 6 6 6 6 6 6 7 7 8 9 11 13 13 12 10 9 8 8 6 4 2 3 3 4 4
6 6 6 7 9 10 10 9 7 5 3 2 1 1 1 1 1 1 3 4 4 4 3 4 4 4 5 7 8 10 11 13 12 10 9 8 7 6 4 2 1 0 0 0
6 6 6 5 4 4 3 3 2 2 2 2 2 2 1 1 1 2 2 2 2 2 1 1 2 2 3 5 6 7 8 9 8 8 7 6 6 5 4 3 2 1 0 0
3 3 3 2 1 0 0 0 0 1 1 1 1 1 1 1 1 1 1 1 1 1 0 0 0 0 1 2 3 4 4 4 4 4 5 4 4 4 4 4 4 2 1 0
1 1 1 0 0 0 0 0 0 0 0 0 0 0 0 0 0 0 0 0 0 0 0 0 0 0 0 1 1 2 2 1 1 2 2 2 2 3 3 3 3 2 1 0
0 0 0 0 0 0 0 0 0 0 0 0 0 0 0 0 0 0 0 0 0 0 0 0 0 0 0 0 0 1 1 0 0 1 1 1 1 1 3 3 2 1 0 0
0 0 0 0 0 0 0 0 0 0 0 0 0 0 0 0 0 0 0 0 0 0 0 0 0 0 0 0 0 0 0 0 0 0 0 0 0 1 2 2 1 0 0 0
0 0 0 0 0 0 0 0 0 0 0 0 0 0 0 0 0 0 0 0 0 0 0 0 0 0 0 0 0 0 0 0 0 0 0 0 0 0 1 1 0 0 0 0
0 0 0 0 0 0 0 0 0 0 0 0 0 0 0 0 0 0 0 0 0 0 0 0 0 0 0 0 0 0 0 0 0 0 0 0 0 0 0 0 0 0 0 0
0 0 0 0 0 0 0 0 0 0 0 0 0 0 0 0 0 0 0 0 0 0 0 0 0 0 0 0 0 0 0 0 0 0 0 0 0 0 0 0 0 0 0 0
0 0 0 0 0 0 0 0 0 0 0 0 0 0 0 0 0 0 0 0 0 0 0 0 0 0 0 0 0 0 0 0 0 0 0 0 0 0 0 0 0 0 0 0
0 0 0 0 0 0 0 0 0 0 0 0 0 0 0 0 0 0 0 0 0 0 0 0 0 0 0 0 0 0 0 0 0 0 0 0 0 0 0 0 0 0 0 0
0 0 0 0 0 0 0 0 0 0 0 0 0 0 0 0 0 0 0 0 0 0 0 0 0 0 0 0 0 0 0 0 0 0 0 0 0 0 0 0 0 0 0 0
0 0 0 0 0 0 0 0 0 0 0 0 0 0 0 0 0 0 0 0 0 0 0 0 0 0 0 0 0 0 0 0 0 0 0 0 0 0 0 0 0 0 0 0
0 0 0 0 0 0 0 0 0 0 0 0 0 0 0 0 0 0 0 0 0 0 0 0 0 0 0 0 0 0 0 0 0 0 0 0 0 0 0 0 0 0 0 0
0 0 0 0 0 0 0 0 0 0 0 0 0 0 0 0 0 0 0 0 0 0 0 0 0 0 0 0 0 0 0 0 0 0 0 0 0 0 0 0 0 0 0 0

GEFSNGP_con_probscp_174.txt.gz
Probability
0 0 0 0 0 0 0 0 3 8 15 20 22 23 27 33 35 35 37 39 42 45 45 43 42 41 41 40 38 33 30 30 30 28 26 23 21 24 25 22 18 18 19 20
0 0 0 0 0 0 0 2 5 11 17 21 25 29 32 34 35 35 35 37 40 43 43 41 38 36 36 37 36 32 27 26 27 25 24 22 20 21 22 21 19 19 19 19
0 0 0 0 0 1 2 6 10 14 18 24 33 38 39 38 37 37 36 36 38 40 39 37 34 30 29 31 32 29 24 21 21 21 20 20 19 19 20 21 22 22 21 19
1 0 0 0 1 3 7 12 16 19 23 30 39 44 44 43 43 41 40 38 37 34 31 30 28 26 26 27 27 24 20 17 16 16 17 17 19 22 24 24 25 24 22 20
2 2 1 2 4 8 14 18 21 25 30 35 37 39 42 45 46 44 41 39 35 30 26 26 26 25 24 24 23 20 17 15 14 13 14 16 20 25 28 27 25 23 21 19
4 3 4 6 9 13 18 23 26 29 33 36 34 34 40 47 48 45 41 39 35 30 29 30 29 27 24 22 20 19 17 16 15 14 15 17 21 24 26 25 22 20 19 19
4 5 9 12 13 18 26 32 34 34 37 40 38 39 43 46 47 44 39 36 32 30 30 30 28 25 23 20 18 17 16 15 15 14 15 17 20 21 21 21 20 19 19 20
13 13 17 21 21 27 39 42 38 38 41 43 42 41 42 43 41 38 33 29 26 25 26 25 23 21 19 17 15 14 13 13 12 12 12 13 16 17 16 17 19 20 20 20
26 24 25 28 28 33 42 43 39 38 40 40 38 36 36 36 34 30 26 22 19 18 19 20 19 16 14 13 12 11 11 12 11 11 11 12 14 14 13 14 16 18 19 17
28 25 24 25 25 27 33 38 39 38 36 34 31 30 30 30 28 24 19 16 13 12 13 13 14 12 10 10 10 10 11 12 12 11 11 12 13 13 11 10 10 12 14 13
17 14 15 18 18 21 27 32 35 35 33 30 27 26 24 23 20 16 13 10 9 8 8 8 7 7 7 7 9 11 12 13 13 11 9 9 9 7 6 6 6 6 7 7
8 8 10 15 17 19 24 27 29 30 29 25 22 19 17 14 11 8 6 6 6 5 5 5 4 4 5 6 7 9 11 13 13 11 8 7 6 3 2 2 2 2 2 3
9 9 11 16 19 20 22 25 25 23 20 15 12 10 9 7 5 4 4 4 4 4 3 3 3 3 4 4 5 6 8 10 11 9 8 7 7 4 1 0 0 0 0 1
12 12 13 16 19 20 19 21 19 14 10 7 5 4 4 3 4 4 5 5 5 4 3 3 3 4 4 3 4 5 6 7 8 9 8 8 9 6 3 1 1 0 0 0
10 11 12 13 14 13 12 13 11 8 6 5 4 3 2 2 3 5 5 5 5 4 4 4 4 4 3 2 2 3 3 4 6 8 9 9 7 5 3 2 1 0 1 1
6 7 8 9 8 5 5 6 5 5 5 5 4 3 1 1 1 2 2 3 4 4 4 4 3 2 1 1 1 1 1 1 3 5 7 8 6 4 2 1 0 1 2 2
2 3 3 3 2 1 1 1 2 3 4 4 4 2 1 0 0 0 0 1 3 3 3 3 2 1 0 0 0 0 0 0 0 1 3 5 4 3 1 0 0 1 2 3
0 0 0 0 0 0 0 0 1 1 2 2 1 1 0 0 0 0 0 1 2 3 3 2 2 2 1 0 1 1 1 0 0 0 0 1 1 1 0 0 0 1 2 2
0 0 0 0 0 1 1 1 1 1 0 0 0 0 0 0 0 0 1 1 2 3 2 1 1 1 1 0 1 1 1 0 0 0 0 0 0 0 0 0 0 1 2 2
0 0 0 1 1 2 2 1 1 1 0 0 0 0 0 0 0 0 1 2 2 2 1 0 0 0 0 0 0 1 1 0 0 0 0 0 0 0 0 0 1 2 2 1
0 0 1 2 2 2 1 1 0 0 0 0 0 0 0 0 0 0 1 1 1 1 0 0 0 0 0 0 0 0 0 0 0 0 0 0 0 0 0 0 1 1 1 0
1 1 2 2 1 1 0 0 0 0 0 0 0 0 0 0 0 0 0 0 0 0 0 0 0 0 0 0 0 0 0 0 0 0 0 0 0 0 0 0 0 0 0 0
2 3 2 1 0 0 0 0 0 0 0 0 0 0 0 0 0 0 0 0 0 0 0 0 0 0 0 0 0 0 0 0 0 0 0 0 0 0 0 0 0 0 0 0
2 2 1 0 0 0 0 0 0 0 0 0 0 0 0 0 0 0 0 0 0 0 0 0 0 0 0 0 0 0 0 0 0 0 0 0 0 0 0 0 0 0 0 0
1 1 0 0 0 0 0 0 0 0 0 0 0 0 0 0 0 0 0 0 0 0 0 0 0 0 0 0 0 0 0 0 0 0 0 0 0 0 0 0 0 0 0 0
0 0 0 0 0 0 0 0 0 0 0 0 0 0 0 0 0 0 0 0 0 0 0 0 0 0 0 0 0 0 0 0 0 0 0 0 0 0 0 0 0 0 0 0
0 0 0 0 0 0 0 0 0 0 0 0 0 0 0 0 0 0 0 0 0 0 0 0 0 0 0 0 0 0 0 0 0 0 0 0 0 0 0 0 0 0 0 0

GEFSNGP_con_probscp_180.txt.gz
Probability
0 0 0 0 0 0 0 0 1 4 6 6 7 9 13 18 23 29 32 33 32 30 28 25 24 23 22 20 21 23 25 23 18 12 9 8 6 4 3 3 3 2 1 1
0 0 0 0 0 0 0 0 3 7 10 10 10 12 16 21 25 27 30 31 31 28 25 23 22 22 21 20 20 21 20 18 14 10 8 7 5 3 2 2 2 2 1 0
0 0 0 0 0 0 1 3 7 12 15 17 17 17 19 21 23 24 27 29 28 25 24 22 20 19 19 19 19 18 16 14 12 9 7 5 3 1 1 1 1 1 1 1
0 0 0 0 0 2 4 8 13 17 21 25 27 25 21 20 20 21 24 25 25 24 23 22 19 18 17 17 16 14 13 12 11 11 9 6 2 0 0 0 1 1 2 2
0 0 0 0 2 6 10 14 18 23 28 31 33 31 25 20 19 20 22 23 23 23 23 21 18 17 16 14 13 12 11 10 9 10 10 8 4 1 1 1 2 3 3 3
0 0 0 3 8 12 15 19 21 25 30 31 31 30 26 23 22 22 23 23 23 22 21 18 15 14 14 13 12 11 10 8 7 8 8 7 5 4 3 3 4 4 4 4
0 0 2 7 13 15 15 18 22 25 27 27 25 25 25 24 24 24 24 24 23 20 18 15 12 11 10 10 10 9 8 7 6 6 6 6 6 6 5 5 4 4 4 4
0 1 3 7 11 12 12 16 20 23 24 22 21 21 22 21 20 21 21 21 19 16 13 10 9 8 7 6 6 6 6 6 6 6 5 4 5 6 5 4 4 4 4 4
1 2 2 4 5 7 9 13 15 16 17 17 17 18 18 16 15 15 15 14 12 11 8 6 4 4 3 3 4 5 6 5 4 4 4 4 4 4 4 3 3 3 3 3
2 3 3 3 3 5 7 9 10 11 11 13 16 17 17 15 13 12 10 8 6 6 4 2 1 1 1 1 3 4 4 4 3 3 3 3 3 2 3 3 3 3 3 3
1 2 3 4 3 4 6 7 8 10 11 12 14 17 16 13 11 9 6 4 3 3 2 1 0 0 0 0 1 2 3 3 3 3 3 3 1 1 1 2 2 2 2 2
1 1 2 2 2 4 6 6 7 9 10 11 12 13 11 8 6 4 2 2 1 1 1 0 0 0 0 0 0 1 2 3 3 3 3 2 1 0 0 1 1 1 1 1
1 1 1 1 3 5 7 7 7 8 8 8 8 7 5 3 2 1 0 0 0 0 0 0 0 0 0 0 0 1 2 3 3 3 3 3 1 1 0 0 0 0 0 0
1 1 2 3 5 7 8 8 7 6 5 4 4 3 2 1 0 0 0 0 0 0 0 0 0 0 0 0 0 0 1 2 2 2 2 2 2 1 0 0 0 0 0 0
1 2 3 4 5 6 6 6 4 2 1 1 1 1 0 0 0 0 0 0 0 0 0 0 0 0 0 0 0 0 0 1 1 1 1 1 1 1 0 0 0 0 0 0
1 2 2 3 3 3 2 2 1 0 0 0 0 0 0 0 0 0 0 0 0 0 0 0 0 0 0 0 0 0 0 0 0 0 0 0 0 0 0 0 0 0 0 0
0 1 1 1 1 0 0 1 0 0 0 0 0 0 0 0 0 0 0 0 0 0 0 0 0 0 0 0 0 0 0 0 0 0 0 0 0 0 0 0 0 0 0 0
0 0 0 0 0 0 0 0 0 0 0 0 0 0 0 0 0 0 0 0 0 0 0 0 0 0 0 0 0 0 0 0 0 0 0 0 0 0 0 0 0 0 0 0
1 0 0 0 0 0 0 0 0 0 0 0 0 0 0 0 0 0 0 0 0 0 0 0 0 0 0 0 0 0 0 0 0 0 0 0 0 0 0 0 0 0 0 0
1 0 0 0 0 0 0 0 0 0 0 0 0 0 0 0 0 0 0 0 0 0 0 0 0 0 0 0 0 0 0 0 0 0 0 0 0 0 0 0 0 0 0 0
1 0 0 0 0 0 0 0 0 0 0 0 0 0 0 0 0 0 0 0 0 0 0 0 0 0 0 0 0 0 0 0 0 0 0 0 0 0 0 0 0 0 0 0
0 0 0 0 0 0 0 0 0 0 0 0 0 0 0 0 0 0 0 0 0 0 0 0 0 0 0 0 0 0 0 0 0 0 0 0 0 0 0 0 0 0 0 0
0 0 0 0 0 0 0 0 0 0 0 0 0 0 0 0 0 0 0 0 0 0 0 0 0 0 0 0 0 0 0 0 0 0 0 0 0 0 0 0 0 0 0 0
0 0 0 0 0 0 0 0 0 0 0 0 0 0 0 0 0 0 0 0 0 0 0 0 0 0 0 0 0 0 0 0 0 0 0 0 0 0 0 0 0 0 0 0
0 0 0 0 0 0 0 0 0 0 0 0 0 0 0 0 0 0 0 0 0 0 0 0 0 0 0 0 0 0 0 0 0 0 0 0 0 0 0 0 0 0 0 0
0 0 0 0 0 0 0 0 0 0 0 0 0 0 0 0 0 0 0 0 0 0 0 0 0 0 0 0 0 0 0 0 0 0 0 0 0 0 0 0 0 0 0 0
0 0 0 0 0 0 0 0 0 0 0 0 0 0 0 0 0 0 0 0 0 0 0 0 0 0 0 0 0 0 0 0 0 0 0 0 0 0 0 0 0 0 0 0

GEFSNGP_con_probscp_186.txt.gz
Probability
0 0 0 0 0 0 0 0 0 0 0 1 4 8 10 11 13 15 17 20 22 24 26 23 19 19 19 19 18 19 17 13 10 9 7 5 3 1 0 0 0 0 0 0
0 0 0 0 0 0 0 0 0 0 0 1 3 7 10 11 14 15 15 17 19 20 22 20 17 18 19 19 18 18 16 12 11 10 7 5 3 1 0 0 0 0 0 0
0 0 0 0 0 0 0 0 0 0 0 2 5 7 9 11 13 13 12 13 14 15 18 17 16 17 17 18 18 18 15 13 12 11 8 4 2 1 0 0 0 0 0 0
0 0 0 0 0 0 0 0 1 0 1 4 8 10 9 9 9 9 10 10 11 13 15 16 16 16 16 16 16 15 14 14 14 13 9 4 1 0 0 0 0 0 0 0
0 0 0 0 1 1 1 0 0 0 1 5 10 11 8 6 5 7 9 10 11 13 14 14 14 15 14 12 12 11 11 12 14 12 8 4 1 0 0 0 0 0 0 0
0 0 0 0 1 2 1 0 0 1 3 7 10 9 6 6 7 8 9 10 11 12 12 11 11 12 11 8 7 6 7 8 9 8 5 3 1 0 0 0 0 0 0 0
0 0 0 0 1 1 1 0 0 3 6 7 7 7 7 8 8 9 9 9 10 10 10 10 10 9 7 5 4 4 4 4 4 2 1 1 1 0 0 0 0 0 0 0
0 0 0 0 1 2 1 0 1 4 6 6 6 8 9 10 9 10 10 10 9 9 9 9 9 8 5 4 3 3 2 2 1 1 1 1 1 0 0 0 0 0 0 0
0 0 0 1 3 3 2 0 1 3 4 5 6 8 10 12 12 12 12 11 10 10 9 7 7 6 4 3 2 2 2 2 2 2 2 2 1 0 0 0 0 0 0 0
0 0 1 2 3 2 1 1 1 3 4 5 6 7 9 12 14 14 13 11 9 9 8 5 4 3 2 1 1 1 1 1 1 2 2 2 1 0 0 0 0 0 0 0
0 0 1 2 1 0 0 1 2 4 5 5 5 5 8 11 12 12 11 8 6 5 4 2 1 1 1 0 0 0 0 0 0 1 1 1 0 0 0 0 0 0 0 0
0 0 1 1 0 0 0 2 3 4 5 5 4 5 8 10 9 8 7 4 2 1 1 0 0 0 0 0 0 0 0 0 0 0 0 0 0 0 0 0 0 0 0 0
0 0 1 1 1 0 0 2 3 3 2 4 5 6 7 7 6 5 3 1 1 0 0 0 0 0 0 0 0 0 0 0 0 0 0 0 0 0 0 0 0 0 0 0
0 0 2 2 1 1 0 1 1 1 1 2 5 6 5 4 3 2 1 0 0 0 0 0 0 0 0 0 0 0 0 0 0 0 0 0 0 0 0 0 0 0 0 0
0 0 1 2 2 2 1 0 0 0 0 1 4 4 3 1 1 0 0 0 0 0 0 0 0 0 0 0 0 0 0 0 0 0 0 0 0 0 0 0 0 0 0 0
0 0 0 1 1 1 1 0 0 1 1 1 2 1 0 0 0 0 0 0 0 0 0 0 0 0 0 0 0 0 0 0 0 0 0 0 0 0 0 0 0 0 0 0
0 0 0 0 1 1 1 1 1 2 2 2 1 0 0 0 0 0 0 0 0 0 0 0 0 0 0 0 0 0 0 0 0 0 0 0 0 0 0 0 0 0 0 0
0 0 1 1 2 2 2 2 3 3 2 1 0 0 0 0 0 0 0 0 0 0 0 0 0 0 0 0 0 0 0 0 0 0 0 0 0 0 0 0 0 0 0 0
0 0 0 1 2 2 2 2 2 2 1 0 0 0 0 0 0 0 0 0 0 0 0 0 0 0 0 0 0 0 0 0 0 0 0 0 0 0 0 0 0 0 0 0
0 0 0 0 1 1 1 1 1 1 0 0 0 0 0 0 0 0 0 0 0 0 0 0 0 0 0 0 0 0 0 0 0 0 0 0 0 0 0 0 0 0 0 0
0 0 0 0 0 0 0 0 0 0 0 0 0 0 0 0 0 0 0 0 0 0 0 0 0 0 0 0 0 0 0 0 0 0 0 0 0 0 0 0 0 0 0 0
0 0 0 0 0 0 0 0 0 0 0 0 0 0 0 0 0 0 0 0 0 0 0 0 0 0 0 0 0 0 0 0 0 0 0 0 0 0 0 0 0 0 0 0
0 0 0 0 0 0 0 0 0 0 0 0 0 0 0 0 0 0 0 0 0 0 0 0 0 0 0 0 0 0 0 0 0 0 0 0 0 0 0 0 0 0 0 0
0 0 0 0 0 0 0 0 0 0 0 0 0 0 0 0 0 0 0 0 0 0 0 0 0 0 0 0 0 0 0 0 0 0 0 0 0 0 0 0 0 0 0 0
0 0 0 0 0 0 0 0 0 0 0 0 0 0 0 0 0 0 0 0 0 0 0 0 0 0 0 0 0 0 0 0 0 0 0 0 0 0 0 0 0 0 0 0
0 0 0 0 0 0 0 0 0 0 0 0 0 0 0 0 0 0 0 0 0 0 0 0 0 0 0 0 0 0 0 0 0 0 0 0 0 0 0 0 0 0 0 0
0 0 0 0 0 0 0 0 0 0 0 0 0 0 0 0 0 0 0 0 0 0 0 0 0 0 0 0 0 0 0 0 0 0 0 0 0 0 0 0 0 0 0 0